Regional Weather Roundup
Issued by NWS

Home | Current Version | Previous Version | Graphics & Text | Print | Product List | Glossary On
Versions: 1 2 3 4 5 6 7 8 9 10 11 12 13 14 15 16 17 18 19 20 21 22 23 24 25 26 27 28 29 30 31 32 33 34 35 36 37 38 39 40 41 42 43 44 45 46 47 48 49 50
000
ASUS45 KPSR 221410
RWRAZ

ARIZONA REGIONAL HOURLY WEATHER ROUNDUP
NATIONAL WEATHER SERVICE PHOENIX AZ
700 AM MST MON DEC 22 2014

NOTE: FAIR INDICATES FEW OR NO CLOUDS BELOW 12,000 FEET WITH NO
SIGNIFICANT WEATHER AND/OR OBSTRUCTIONS TO VISIBILITY.

AZZ001>003-036-221500-
NORTHWEST ARIZONA

CITY           SKY/WX    TMP DP  RH WIND       PRES   REMARKS
BULLHEAD CITY  CLEAR     46  43  87 S3        30.06S
KINGMAN        CLEAR     33  31  92 E5        30.08F WCI  29
$$

AZZ004>008-015-016-018-221500-
NORTH CENTRAL ARIZONA

CITY           SKY/WX    TMP DP  RH WIND       PRES   REMARKS
GRAND CANYON   PTCLDY    22  20  92 CALM      30.08F
PRESCOTT       CLEAR     42  32  67 W3        30.08S
FLAGSTAFF      CLEAR     41  31  67 W5        30.09R
PAYSON         CLEAR     39  34  81 CALM      30.05R
PAGE           CLEAR     42  33  70 CALM      29.98R
$$

AZZ009>014-017-221500-
NORTHEAST ARIZONA

CITY           SKY/WX    TMP DP  RH WIND       PRES   REMARKS
WINSLOW        PTCLDY    29  27  92 E5        30.03R WCI  24
SAINT JOHNS    MOCLDY    36  31  82 S5        30.02S WCI  32
WINDOW ROCK    CLEAR     28  24  85 S5        30.01S WCI  23
SHOW LOW       PTCLDY    32  27  80 CALM      30.07S
$$

AZZ023-221500-
GREATER PHOENIX AREA

CITY           SKY/WX    TMP DP  RH WIND       PRES   REMARKS
PHOENIX        MOCLDY    48  42  80 E5        30.02R
BUCKEYE          N/A     41  41 100 N3        30.04S
GLENDALE       PTCLDY    45  45 100 CALM      30.04R
LUKE AFB       CLEAR     43  43 100 NW5       30.02R
DEER VALLEY    PTCLDY    45  40  82 NE6       30.02R
SCOTTSDALE     CLEAR     46  40  79 CALM      30.04R
MESA-FALCON    PTCLDY    45  43  93 NE6       30.02R
MESA-GATEWAY   PTCLDY    43  39  87 E3        30.05R
CHANDLER       MOCLDY    43  41  93 CALM      30.04R
$$

AZZ027-028-221500-
SOUTHWEST MARICOPA COUNTY AND PINAL COUNTY

CITY           SKY/WX    TMP DP  RH WIND       PRES   REMARKS
CASA GRANDE    PTCLDY    41  37  87 MISG      30.03R
GILA BEND      PTSUNNY   44  40  88 E1        30.04
$$

AZZ503-504-507>509-221500-
SOUTHEAST ARIZONA

CITY           SKY/WX    TMP DP  RH WIND       PRES   REMARKS
TUCSON         CLEAR     42  36  79 S6        30.04S
DAVIS-MONTHAN  PTCLDY    40  37  89 SE8       30.02S WCI  34
RYAN FIELD       N/A     41  41 100 CALM      30.04S
NOGALES        PTCLDY    36  32  85 N3        30.04R
SIERRA VISTA   PTCLDY    40  32  73 CALM      30.05R
DOUGLAS        PTCLDY    30  27  88 NE8       30.05R WCI  22
SAFFORD        PTCLDY    38  34  85 NE6       29.99F WCI  33
$$

AZZ020-021-025-026-031-221500-
SOUTHWEST ARIZONA

CITY           SKY/WX    TMP DP  RH WIND       PRES   REMARKS
YUMA           MOCLDY   N/A N/A N/A NE5       30.02R
$$

CAZ031-033-041-043-047-048-061-221500-
SOUTHERN CALIFORNIA

CITY           SKY/WX    TMP DP  RH WIND       PRES   REMARKS
DOWNTOWN L.A.  CLEAR     50  47  89 CALM      30.03S FOG
L.A. AIRPORT   PTCLDY    52  48  87 E3        30.04R FOG
SAN DIEGO      PTCLDY    54  50  86 CALM      30.05S
BURBANK        CLEAR     49  44  83 NE5       30.03R
ONTARIO        PTCLDY    50  43  77 CALM      30.03F
RIVERSIDE      CLEAR     48  45  89 CALM      30.04R
PALM SPRINGS   PTCLDY    49  45  86 SW5       30.05R
EL CENTRO NAS  PTCLDY    46  42  86 CALM      30.02S
IMPERIAL       CLEAR     46  42  86 SW5       30.01S
BLYTHE         CLEAR     46  44  93 CALM      30.04R
NEEDLES        CLEAR     46  39  76 SW8       30.04F
$$

NVZ020-UTZ003-221500-
SOUTHERN NEVADA-UTAH

CITY           SKY/WX    TMP DP  RH WIND       PRES   REMARKS
LAS VEGAS      PTCLDY    47  38  71 CALM      30.04R
SALT LAKE CITY LGT RAIN  38  37  97 SE7       29.99F FOG     WCI  33
$$

NMZ009-TXZ055-221500-
NEW MEXICO-WEST TEXAS

CITY           SKY/WX    TMP DP  RH WIND       PRES   REMARKS
ALBUQUERQUE    PTCLDY    35  29  78 SE8       29.91S WCI  29
EL PASO        PTCLDY    51  31  46 VRB5      29.92R
$$


........................KEY........................
SKY/WX - SKY CONDITION/WEATHER
TMP    - TEMPERATURE IN FAHRENHEIT
DP     - DEW POINT IN FAHRENHEIT
RH     - RELATIVE HUMIDITY IN PERCENT
WIND   - DIRECTION AND SPEED IN MILES PER HOUR (MPH)
VRB    - VARIABLE WIND DIRECTION
PRES   - MEAN SEA LEVEL PRESSURE IN INCHES OF MERCURY
         F - FALLING PRESSURE   R - RISING PRESSURE
         S - STEADY PRESSURE
VSB    - VISIBILITY IN MILES
HX     - HEAT INDEX IN FAHRENHEIT
WCI    - WIND CHILL INDEX IN FAHRENHEIT
TC     - TEMPERATURE IN CELSIUS WHICH IS ALSO KNOWN AS
         TEMPERATURE IN CENTIGRADE
AFB    - AIR FORCE BASE
         LUKE AFB IS LUKE AIR FORCE BASE
         DAVIS-MONTHAN IS DAVIS-MONTHAN AIR FORCE BASE
NAS    - NAVAL AIR STATION
         EL CENTRO NAS IS EL CENTRO NAVAL AIR STATION
N/A    - NOT AVAILABLE


USA.gov is the U.S. government's official web portal to all federal, state and local government web resources and services.